Location: Arborea
(39.7744°N, 8.5819°E)
Time: 20:51:10
(UTC+00:00)

CZ-2C DEB - Pass Details

Date: 21 August 2022
Orbit: 681 x 927 km, 97.9° (Epoch: 03 October)

Event Time Altitude Azimuth Distance (km) Brightness Sun altitude
Rises 20:08:59 0° 28° (NNE) 3,302 ? -20.6°
Reaches altitude 10° 20:11:48 10° 44° (NE) 2,412 ? -21.0°
Enters shadow 20:14:02 19° 66° (ENE) 1,909 ? -21.4°
